{"data":{"norad_id":87771,"intl_designator":"","name":"UNKNOWN","alt_names":[],"object_type":"UNKNOWN","status":"UNKNOWN","operator":null,"country":null,"launch_date":null,"launch_site_code":null,"launch_vehicle":null,"mission":null,"orbit_class":"UNKNOWN","rcs_meters":null,"size_class":null,"mass_kg":null,"dimensions":null,"purposes":[],"wikipedia_slug":null,"has_3d_model":false,"image_url":null,"decayed_at":null,"tle_current":{"epoch":"2026-05-22T06:38:13.627968Z","epoch_age_seconds":320421,"freshness":"STALE","line1":"1 87771U          26142.27654662  .00000044  00000+0  22088-3 0  9993","line2":"2 87771 100.7361 346.8865 0119722 358.8476   1.2346 13.19561041556264","mean_motion":13.19561041,"eccentricity":0.0119722,"inclination_deg":100.7361,"raan_deg":346.8865,"arg_perigee_deg":358.8476,"mean_anomaly_deg":1.2346,"bstar":0.00022088,"rev_number":55626,"period_min":109.12719876215,"perigee_km":1095.8329811223,"apogee_km":1276.961211336,"semimajor_km":7564.5340962292,"source":"CELESTRAK","updated_at":"2026-05-25T13:38:11.678954Z"}}}